Location: Hamilton
(37.7830°S, 175.2830°E)
Time: 21:59:58
(UTC+12:00)

Atlas Centaur 2 - Pass Details

Date: 24 January 2019
Orbit: 459 x 1311 km, 30.4° (Epoch: 21 April)

Event Time Altitude Azimuth Distance (km) Brightness Sun altitude
Rises 22:22:21 0° 286° (WNW) 4,198 6.2 -17.8°
Reaches altitude 10° 22:25:17 10° 291° (WNW) 3,286 5.6 -18.2°
Maximum altitude 22:33:27 51° 3° (N) 1,599 3.3 -19.4°
Enters shadow 22:37:42 29° 63° (ENE) 2,185 3.8 -20.0°
